This demonstration page uses our WeatherBlox Daily Observations layout. Learn more.

41.55636, -103.73856

Hourly Observations for July 6, 2020

Temp ( °F °C ) Dew Point ( °F °C ) Humidity (%) Winds ( mph kmh ) Pressure ( in mb ) Visibility ( mi km ) Precip ( " mm )
12:58 am 00:58 Mostly Cloudy 70 21.2 50 9.9 49 49 W 18 30 29.96 1015 10 16.0934 0 0
1:58 am 01:58 Partly Cloudy 76 24.2 43 6.3 32 32 SSW 13 20 29.93 1013 10 16.0934 0 0
2:58 am 02:58 Mostly Cloudy 73 22.8 42 5.8 33 33 SSW 9 15 29.88 1012 10 16.0934 0 0
3:58 am 03:58 Clear 71 21.4 43 6.3 38 38 E 14 22 29.92 1013 10 16.0934 0 0
4:58 am 04:58 Clear 65 18.3 47 8.4 53 53 E 10 17 29.93 1014 10 16.0934 0 0
5:58 am 05:58 Clear 63 17.3 48 8.9 58 58 SE 6 9 29.93 1014 10 16.0934 0 0
6:58 am 06:58 Clear 62 16.8 47 8.6 59 59 ESE 6 9 29.92 1013 10 16.0934 0 0
7:58 am 07:58 Clear 58 14.2 48 8.7 70 70 ENE 5 7 29.93 1013 10 16.0934 0 0
8:58 am 08:58 Clear 58 14.4 48 9 70 70 E 8 13 29.93 1013 10 16.0934 0 0
9:58 am 09:58 Mostly Clear 59 14.8 50 10.1 74 74 ESE 9 15 29.93 1013 10 16.0934 0 0
10:58 am 10:58 Mostly Clear 57 13.9 49 9.4 74 74 NE 3 6 29.94 1014 10 16.0934 0 0
11:58 am 11:58 Sunny 53 11.9 49 9.5 85 85 ENE 3 6 30 1016 10 16.0934 0 0
12:58 pm 12:58 Sunny 56 13.3 50 10.1 81 81 Calm 30 1016 10 16.0934 0 0
1:58 pm 13:58 Sunny 65 18.1 55 12.7 71 71 N 6 9 29.98 1015 10 16.0934 0 0
2:58 pm 14:58 Sunny 67 19.7 55 12.5 63 63 NNW 3 6 30.01 1016 10 16.0934 0 0
3:58 pm 15:58 Sunny 71 21.9 55 12.8 56 56 N 6 9 29.98 1015 10 16.0934 0 0
4:58 pm 16:58 Sunny 75 23.8 53 11.5 46 46 NW 5 7 29.98 1015 10 16.0934 0 0
5:58 pm 17:58 Sunny 81 27.4 51 10.8 35 35 SSW 3 6 29.96 1015 10 16.0934 0 0
6:58 pm 18:58 Sunny 87 30.7 47 8.1 24 24 WSW 6 9 29.93 1013 10 16.0934 0 0
7:58 pm 19:58 Sunny 90 32 42 5.8 19 19 Calm 29.91 1013 10 16.0934 0 0
8:58 pm 20:58 Sunny 93 33.9 36 2.1 13 13 ENE 7 11 29.87 1012 10 16.0934 0 0
9:58 pm 21:58 Sunny 95 35.2 39 4.1 14 14 E 9 15 29.85 1011 10 16.0934 0 0
10:58 pm 22:58 Partly Cloudy with Nearby Thunderstorms 92 33.1 44 6.8 19 19 ENE 10 17 29.85 1011 10 16.0934 0 0
11:58 pm 23:58 Mostly Cloudy with Thunderstorms 81 27.2 43 6.3 26 26 NW 16 26 29.95 1014 10 16.0934 0 0

Powered by AerisWeather